Flag for Slovakia Weather past 2 weeks in Prievidza, Slovakia

Now
72 °F

Overcast.


Feels Like: 76 °F
Forecast: 53 / 72 °F
Wind: No wind

Location: Prievidza

Current Time: Sep 3, 2015 at 8:20:50 PM

Latest Report: Sep 3, 2015 at 7:00 PM


Visibility: 25 mi

Pressure: 29.85 "Hg

Humidity: 64%

Dew point: 59 °F

Location of PrievidzaLocation

Historic Weather in Prievidza — Graph

°F

Prievidza temperature yesterday

Maximum temperature yesterday: 80 °F (at 2:00 PM)
Minimum temperature yesterday: 57 °F (at 5:00 AM)
Average temperature yesterday: 69 °F

Past Weeks' High & Low Weather Summary

 TemperatureHumidityPressure
High94 °F (Aug 31, 3:00 PM)95% (Aug 19, 7:00 PM)30.23 "Hg (Aug 19, 7:00 PM)
Low50 °F (Aug 26, 6:00 AM)27% (Sep 1, 6:00 PM)29.72 "Hg (Sep 1, 6:00 PM)
Average70 °F66%30.03 "Hg
* Reported Aug 19 7:00 PM — Sep 3 7:00 PM, Prievidza, Weather by CustomWeather, © 2015

Note: Actual official high and low records may vary slightly from our data, if they occured in-between our weather recording intervals... More about our weather records

Advertising

Prievidza weather history for previous 24 hours

 ConditionsComfort  
Time TempWeatherWind HumidityBarometerVisibility
7:00 PM
Thu, Sep 3
72 °FOvercast.No wind64%29.85 "Hg25 mi
6:00 PM74 °FMild.2 mph68%29.85 "HgN/A
5:00 PM74 °FOvercast.3 mph61%29.85 "Hg22 mi
4:00 PM77 °FMild.5 mph55%29.86 "HgN/A
3:00 PM78 °FPartly sunny.5 mph50%29.86 "Hg25 mi
2:00 PM80 °FPassing clouds.5 mph48%29.87 "Hg22 mi
1:00 PM79 °FScattered clouds.N/A53%29.87 "Hg22 mi
12:00 PM75 °FPassing clouds.N/A55%29.89 "Hg22 mi
11:00 AM72 °FScattered clouds.N/A58%29.91 "Hg19 mi
10:00 AM69 °FPassing clouds.3 mph62%29.93 "Hg19 mi
9:00 AM66 °FMild.N/A76%29.93 "HgN/A
8:00 AM61 °FPassing clouds.N/A82%29.95 "Hg12 mi
7:00 AM58 °FCool.N/A92%29.95 "Hg7 mi
5:00 AM59 °FCool.N/A91%29.94 "Hg7 mi
4:00 AM59 °FCool.No wind91%29.94 "Hg8 mi
3:00 AM59 °FCool.No wind91%29.94 "Hg7 mi
2:00 AM59 °FCool.N/A88%29.93 "Hg6 mi
1:00 AM62 °FCool.N/A83%29.93 "Hg11 mi
11:00 PM
Wed, Sep 2
62 °FRain showers. Overcast.3 mph84%29.92 "Hg7 mi
10:00 PM64 °FPassing clouds.N/A77%29.94 "Hg9 mi
9:00 PM65 °FLight rain. Overcast.3 mph73%29.93 "Hg9 mi
8:00 PM65 °FPassing clouds.2 mph69%29.93 "Hg12 mi
Weather by CustomWeather, © 2015

See weather overviewHow to use our weather pages